Location: Nairn
(57.5833°N, 3.8667°W)
Time: 00:17:57
(UTC+00:00)

N. Korean satellite - Pass Details

Date: 04 November 2020
Orbit: 453 x 503 km, 97.2° (Epoch: 04 December)

Event Time Altitude Azimuth Distance (km) Brightness Sun altitude
Rises 06:32:12 0° 11° (NNE) 2,485 10.1 -8.7°
Reaches altitude 10° 06:34:17 10° 7° (N) 1,606 9.1 -8.5°
Maximum altitude 06:37:37 51° 291° (WNW) 586 6.6 -8.0°
Drops below altitude 10° 06:40:57 10° 214° (SW) 1,598 9.0 -7.6°
Sets 06:43:01 0° 210° (SSW) 2,472 10.0 -7.3°
